DW4394 Weather Reports


Display with metric or nautical units.
time (UTC)temp
F
wind
direction
speed
MPH
gust
MPH
rain 1hr
in
rain 24hr
in
rain mn
in
humidity
%
barometer
mb
20260509033002 88 175 3.0 5.0 0.00 0.00 0.00 10 1003.6
20260509031503 89 190 2.0 5.0 0.00 0.00 0.00 10 1003.6
20260509030004 90 185 2.0 6.0 0.00 0.00 0.00 10 1003.5
20260509024501 91 202 3.0 8.0 0.00 0.00 0.00 9 1003.2
20260509023003 92 199 4.0 10.0 0.00 0.00 0.00 9 1003.1
20260509021502 93 198 4.0 9.0 0.00 0.00 0.00 9 1002.9
20260509020003 94 217 5.0 9.0 0.00 0.00 0.00 8 1002.9
20260509014501 95 263 3.0 10.0 0.00 0.00 0.00 8 1002.8
20260509013003 96 238 4.0 9.0 0.00 0.00 0.00 8 1002.7
20260509011501 97 173 4.0 12.0 0.00 0.00 0.00 8 1002.8
20260509010003 98 163 4.0 9.0 0.00 0.00 0.00 8 1002.9
20260509004500 99 180 4.0 9.0 0.00 0.00 0.00 8 1002.9
20260509003101 99 155 1.0 9.0 0.00 0.00 0.00 7 1003.0
20260509003001 99 128 1.0 9.0 0.00 0.00 0.00 7 1003.0
20260509001602 101 203 3.0 9.0 0.00 0.00 0.00 7 1003.1
20260509000100 100 234 2.0 7.0 0.00 0.00 0.00 7 1003.1
20260509000003 100 257 1.0 7.0 0.00 0.00 0.00 7 1003.2
20260508234502 100 306 1.0 11.0 0.00 0.00 0.00 7 1003.4
20260508233002 102 188 3.0 9.0 0.00 0.00 0.00 7 1003.6
20260508231601 101 196 2.0 6.0 0.00 0.00 0.00 6 1003.5
20260508230100 101 291 2.0 10.0 0.00 0.00 0.00 7 1003.7
20260508230003 101 257 3.0 10.0 0.00 0.00 0.00 7 1003.8
20260508224501 101 215 4.0 11.0 0.00 0.00 0.00 6 1003.9
20260508223101 100 323 2.0 12.0 0.00 0.00 0.00 7 1003.9
20260508221601 100 197 2.0 7.0 0.00 0.00 0.00 7 1004.0
20260508220001 101 212 6.0 15.0 0.00 0.00 0.00 7 1004.4
20260508214613 100 5 2.0 5.0 0.00 0.00 0.00 8 1004.6
20260508214501 101 17 2.0 6.0 0.00 0.00 0.00 8 1004.7
20260508213002 101 196 7.0 12.0 0.00 0.00 0.00 8 1004.9
20260508211600 101 99 2.0 7.0 0.00 0.00 0.00 8 1005.1
20260508210100 100 171 6.0 10.0 0.00 0.00 0.00 8 1005.5
20260508204602 100 355 3.0 5.0 0.00 0.00 0.00 9 1005.8
20260508204505 100 308 2.0 5.0 0.00 0.00 0.00 9 1005.8
20260508203003 99 160 2.0 7.0 0.00 0.00 0.00 8 1006.0
20260508201600 98 166 2.0 8.0 0.00 0.00 0.00 9 1006.2
20260508201501 99 195 2.0 8.0 0.00 0.00 0.00 8 1006.2
20260508200101 97 279 1.0 5.0 0.00 0.00 0.00 9 1006.5
20260508194601 96 325 2.0 5.0 0.00 0.00 0.00 9 1006.7
20260508193120 97 98 2.0 6.0 0.00 0.00 0.00 9 1006.9
20260508191502 96 5 1.0 3.0 0.00 0.00 0.00 9 1007.0
20260508190009 96 19 1.0 6.0 0.00 0.00 0.00 9 1007.3
20260508184604 95 184 1.0 5.0 0.00 0.00 0.00 10 1007.4
20260508184505 95 185 1.0 5.0 0.00 0.00 0.00 10 1007.4
20260508183115 95 16 1.0 5.0 0.00 0.00 0.00 10 1007.6
20260508183001 95 311 1.0 5.0 0.00 0.00 0.00 10 1007.6
20260508181601 94 310 2.0 6.0 0.00 0.00 0.00 11 1007.8
20260508180002 93 159 2.0 5.0 0.00 0.00 0.00 11 1007.9
20260508174614 92 18 2.0 4.0 0.00 0.00 0.00 12 1007.9
20260508173100 92 13 1.0 6.0 0.00 0.00 0.00 12 1008.0
20260508171606 91 350 2.0 6.0 0.00 0.00 0.00 12 1008.0
20260508170004 89 261 2.0 6.0 0.00 0.00 0.00 13 1008.1
20260508164601 89 244 1.0 4.0 0.00 0.00 0.00 13 1008.2
20260508163100 89 289 1.0 4.0 0.00 0.00 0.00 14 1008.2
20260508161607 87 259 0.0 5.0 0.00 0.00 0.00 14 1008.2
20260508160002 86 177 2.0 7.0 0.00 0.00 0.00 15 1008.0
20260508154601 85 186 3.0 7.0 0.00 0.00 0.00 17 1008.0
20260508153101 84 299 3.0 7.0 0.00 0.00 0.00 18 1008.0
20260508151603 83 153 3.0 6.0 0.00 0.00 0.00 18 1008.0
20260508150100 81 203 2.0 6.0 0.00 0.00 0.00 19 1008.1
20260508150001 81 220 2.0 6.0 0.00 0.00 0.00 19 1008.1
20260508144614 80 165 1.0 6.0 0.00 0.00 0.00 21 1008.1
20260508143102 78 207 2.0 5.0 0.00 0.00 0.00 21 1008.1
20260508143000 78 229 2.0 5.0 0.00 0.00 0.00 21 1008.1
20260508141505 77 140 2.0 6.0 0.00 0.00 0.00 21 1008.1
20260508140101 76 168 1.0 3.0 0.00 0.00 0.00 21 1007.9
20260508134600 74 157 2.0 4.0 0.00 0.00 0.00 21 1007.7
20260508133100 74 147 1.0 3.0 0.00 0.00 0.00 21 1007.6
20260508131608 74 160 2.0 5.0 0.00 0.00 0.00 20 1007.4
20260508130100 74 137 2.0 6.0 0.00 0.00 0.00 20 1007.3
20260508124600 74 134 3.0 5.0 0.00 0.00 0.00 20 1007.1
20260508123116 74 136 3.0 5.0 0.00 0.00 0.00 20 1007.0
20260508121609 74 130 3.0 5.0 0.00 0.00 0.00 20 1007.0
20260508120111 74 162 3.0 7.0 0.00 0.00 0.00 20 1006.9
20260508120002 74 153 3.0 7.0 0.00 0.00 0.00 20 1006.9
20260508114601 74 167 5.0 7.0 0.00 0.00 0.00 20 1006.9
20260508113108 75 145 4.0 5.0 0.00 0.00 0.00 19 1007.0
20260508111556 75 154 3.0 7.0 0.00 0.00 0.00 19 1006.9
20260508110107 75 154 4.0 7.0 0.00 0.00 0.00 19 1006.9
20260508104557 75 145 4.0 7.0 0.00 0.00 0.00 18 1006.9
20260508103105 76 129 5.0 8.0 0.00 0.00 0.00 18 1006.9
20260508101557 76 142 5.0 10.0 0.00 0.00 0.00 17 1006.8
20260508100055 76 124 4.0 6.0 0.00 0.00 0.00 17 1006.8
20260508094555 77 178 3.0 8.0 0.00 0.00 0.00 16 1006.8
20260508093105 77 153 5.0 8.0 0.00 0.00 0.00 16 1006.6
20260508091556 78 149 3.0 10.0 0.00 0.00 0.00 15 1006.7
20260508084558 79 134 4.0 8.0 0.00 0.00 0.00 13 1006.9
20260508083102 79 140 5.0 9.0 0.00 0.00 0.00 13 1006.8
20260508081601 79 157 4.0 9.0 0.00 0.00 0.00 13 1006.9
20260508080056 79 149 4.0 9.0 0.00 0.00 0.00 13 1007.0
20260508074557 79 136 4.0 8.0 0.00 0.00 0.00 13 1006.9
20260508073058 79 159 4.0 8.0 0.00 0.00 0.00 13 1007.0
20260508071558 79 136 3.0 7.0 0.00 0.00 0.00 13 1007.0
20260508070058 79 138 4.0 8.0 0.00 0.00 0.00 12 1007.0
20260508064558 80 148 5.0 9.0 0.00 0.00 0.00 12 1007.0
20260508063107 80 145 4.0 7.0 0.00 0.00 0.00 12 1007.0
20260508061601 81 140 4.0 9.0 0.00 0.00 0.00 12 1007.0
20260508060058 81 165 4.0 8.0 0.00 0.00 0.00 12 1006.9
20260508054558 81 165 3.0 6.0 0.00 0.00 0.00 12 1007.0
20260508053107 81 148 4.0 8.0 0.00 0.00 0.00 12 1007.0
20260508051558 81 152 3.0 7.0 0.00 0.00 0.00 12 1007.1
20260508044558 82 146 4.0 7.0 0.00 0.00 0.00 13 1007.1
20260508043104 83 152 4.0 7.0 0.00 0.00 0.00 13 1007.0
20260508041601 83 153 4.0 7.0 0.00 0.00 0.00 14 1007.0
20260508040059 83 140 4.0 7.0 0.00 0.00 0.00 13 1006.9
20260508034611 84 148 3.0 6.0 0.00 0.00 0.00 13 1006.7